Overview Statistics Trail Chart Weather Telemetry Raw packets
 

This is the latest recevied weather packets stored in our database for station/object K7SKM. If no packets are shown the sender has not sent any weather packets the latest 10 day(s).

<< 110 111 112 113 114 >>
Time Temp. Humidity Pressure Rain* Wind** Luminosity Snow
1787843656 16.67° C 75% 1021.6 hPa 0 mm - 36 W/m² -
1787843353 16.67° C 75% 1021.8 hPa 0 mm - 33 W/m² -
1787843048 16.67° C 76% 1021.7 hPa 0 mm - 29 W/m² -
1787842748 16.67° C 76% 1021.7 hPa 0 mm - 18 W/m² -
1787842443 16.67° C 75% 1021.5 hPa 0 mm - 17 W/m² -
1787842138 16.67° C 76% 1021.3 hPa 0 mm - 18 W/m² -
1787841832 16.67° C 75% 1021.5 hPa 0 mm - 18 W/m² -
1787841529 16.67° C 76% 1021.4 hPa 0 mm - 11 W/m² -
1787841227 16.67° C 76% 1021.5 hPa 0 mm - 9 W/m² -
1787840922 16.67° C 76% 1021.4 hPa 0 mm - 8 W/m² -
1787840617 16.67° C 76% 1021.4 hPa 0 mm - 9 W/m² -
1787840313 16.67° C 76% 1021.2 hPa 0 mm - 16 W/m² -
1787840013 16.67° C 75% 1021.3 hPa 0 mm - 22 W/m² -
1787839713 16.67° C 76% 1021.2 hPa 0 mm - 14 W/m² -
1787839408 16.67° C 76% 1021.3 hPa 0 mm - 12 W/m² -
1787839107 16.67° C 76% 1021.3 hPa 0 mm - 6 W/m² -
1787838811 16.67° C 76% 1021.4 hPa 0 mm - 5 W/m² -
1787838501 16.67° C 76% 1021.3 hPa 0 mm - 5 W/m² -
1787838200 16.67° C 76% 1021.3 hPa 0 mm - 4 W/m² -
1787837893 16.67° C 76% 1021.3 hPa 0 mm - 3 W/m² -
1787837592 16.67° C 76% 1021.2 hPa 0 mm - 1 W/m² -
1787837287 16.67° C 76% 1021.2 hPa 0 mm - 0 W/m² -
1787836983 16.67° C 76% 1021.2 hPa 0 mm - 0 W/m² -
1787836677 16.67° C 76% 1021.2 hPa 0 mm - 0 W/m² -
1787836377 16.67° C 75% 1021.2 hPa 0 mm - 0 W/m² -

* Rain latest hour (hover to see other rain measurements)
** Current wind speed in m/s (hover to see current wind gust speed)